<?xml version="1.0" encoding="UTF-8" standalone="no" ?>
<gpx xmlns="http://www.topografix.com/GPX/1/1" xmlns:xsi="http://www.w3.org/2001/XMLSchema-instance" xsi:schemaLocation="http://www.topografix.com/GPX/1/1 http://www.topografix.com/GPX/1/1/gpx.xsd" version="1.1" creator="VisuGPX - https://www.visugpx.com">
  <metadata>
    <name>Serre Cocu GR2</name>
    <desc><![CDATA[grp_trc:]]></desc>
  </metadata>
  <trk>
    <name><![CDATA[8 févr. 2024]]></name>
    <cmt><![CDATA[22:13:20]]></cmt>
    <desc><![CDATA[comment ...]]></desc>
    <trkseg>
      <trkpt lat="45.12072" lon="5.36218">
        <ele>374</ele>
        <time>2024-02-08T21:13:20Z</time>
      </trkpt>
      <trkpt lat="45.12072" lon="5.36218">
        <ele>374</ele>
        <time>2024-02-08T21:13:20Z</time>
      </trkpt>
      <trkpt lat="45.12077" lon="5.36204">
        <ele>374</ele>
        <time>2024-02-08T21:13:20Z</time>
      </trkpt>
      <trkpt lat="45.12107" lon="5.36157">
        <ele>373</ele>
        <time>2024-02-08T21:13:20Z</time>
      </trkpt>
      <trkpt lat="45.12115" lon="5.36092">
        <ele>371</ele>
        <time>2024-02-08T21:13:20Z</time>
      </trkpt>
      <trkpt lat="45.12087" lon="5.36071">
        <ele>369</ele>
        <time>2024-02-08T21:13:20Z</time>
      </trkpt>
      <trkpt lat="45.12037" lon="5.36099">
        <ele>365</ele>
        <time>2024-02-08T21:13:20Z</time>
      </trkpt>
      <trkpt lat="45.12016" lon="5.36098">
        <ele>361</ele>
        <time>2024-02-08T21:13:20Z</time>
      </trkpt>
      <trkpt lat="45.11952" lon="5.36126">
        <ele>357</ele>
        <time>2024-02-08T21:13:20Z</time>
      </trkpt>
      <trkpt lat="45.11924" lon="5.36125">
        <ele>355</ele>
        <time>2024-02-08T21:13:20Z</time>
      </trkpt>
      <trkpt lat="45.11909" lon="5.36115">
        <ele>352</ele>
        <time>2024-02-08T21:13:20Z</time>
      </trkpt>
      <trkpt lat="45.11901" lon="5.36107">
        <ele>349</ele>
        <time>2024-02-08T21:13:20Z</time>
      </trkpt>
      <trkpt lat="45.11878" lon="5.36102">
        <ele>347</ele>
        <time>2024-02-08T21:13:20Z</time>
      </trkpt>
      <trkpt lat="45.11874" lon="5.36086">
        <ele>346</ele>
        <time>2024-02-08T21:13:20Z</time>
      </trkpt>
      <trkpt lat="45.11881" lon="5.36075">
        <ele>345</ele>
        <time>2024-02-08T21:13:20Z</time>
      </trkpt>
      <trkpt lat="45.11934" lon="5.3606">
        <ele>342</ele>
        <time>2024-02-08T21:13:20Z</time>
      </trkpt>
      <trkpt lat="45.11944" lon="5.36052">
        <ele>341</ele>
        <time>2024-02-08T21:13:20Z</time>
      </trkpt>
      <trkpt lat="45.11955" lon="5.36039">
        <ele>340</ele>
        <time>2024-02-08T21:13:20Z</time>
      </trkpt>
      <trkpt lat="45.11972" lon="5.36004">
        <ele>341</ele>
        <time>2024-02-08T21:13:20Z</time>
      </trkpt>
      <trkpt lat="45.11972" lon="5.35982">
        <ele>343</ele>
        <time>2024-02-08T21:13:20Z</time>
      </trkpt>
      <trkpt lat="45.11983" lon="5.35949">
        <ele>346</ele>
        <time>2024-02-08T21:13:20Z</time>
      </trkpt>
      <trkpt lat="45.11907" lon="5.35913">
        <ele>356</ele>
        <time>2024-02-08T21:13:20Z</time>
      </trkpt>
      <trkpt lat="45.11881" lon="5.35876">
        <ele>365</ele>
        <time>2024-02-08T21:13:20Z</time>
      </trkpt>
      <trkpt lat="45.11865" lon="5.35867">
        <ele>371</ele>
        <time>2024-02-08T21:13:20Z</time>
      </trkpt>
      <trkpt lat="45.11851" lon="5.35868">
        <ele>376</ele>
        <time>2024-02-08T21:13:20Z</time>
      </trkpt>
      <trkpt lat="45.11833" lon="5.35878">
        <ele>380</ele>
        <time>2024-02-08T21:13:20Z</time>
      </trkpt>
      <trkpt lat="45.11825" lon="5.35887">
        <ele>384</ele>
        <time>2024-02-08T21:13:20Z</time>
      </trkpt>
      <trkpt lat="45.11822" lon="5.35897">
        <ele>387</ele>
        <time>2024-02-08T21:13:20Z</time>
      </trkpt>
      <trkpt lat="45.11821" lon="5.35908">
        <ele>390</ele>
        <time>2024-02-08T21:13:20Z</time>
      </trkpt>
      <trkpt lat="45.11805" lon="5.35919">
        <ele>393</ele>
        <time>2024-02-08T21:13:20Z</time>
      </trkpt>
      <trkpt lat="45.11795" lon="5.35918">
        <ele>396</ele>
        <time>2024-02-08T21:13:20Z</time>
      </trkpt>
      <trkpt lat="45.11786" lon="5.35923">
        <ele>399</ele>
        <time>2024-02-08T21:13:20Z</time>
      </trkpt>
      <trkpt lat="45.11778" lon="5.35932">
        <ele>401</ele>
        <time>2024-02-08T21:13:20Z</time>
      </trkpt>
      <trkpt lat="45.11771" lon="5.35949">
        <ele>404</ele>
        <time>2024-02-08T21:13:20Z</time>
      </trkpt>
      <trkpt lat="45.11764" lon="5.35956">
        <ele>406</ele>
        <time>2024-02-08T21:13:20Z</time>
      </trkpt>
      <trkpt lat="45.11664" lon="5.35983">
        <ele>416</ele>
        <time>2024-02-08T21:13:20Z</time>
      </trkpt>
      <trkpt lat="45.11416" lon="5.35959">
        <ele>444</ele>
        <time>2024-02-08T21:13:20Z</time>
      </trkpt>
      <trkpt lat="45.11395" lon="5.35941">
        <ele>458</ele>
        <time>2024-02-08T21:13:20Z</time>
      </trkpt>
      <trkpt lat="45.11363" lon="5.3599">
        <ele>467</ele>
        <time>2024-02-08T21:13:20Z</time>
      </trkpt>
      <trkpt lat="45.1134" lon="5.3601">
        <ele>473</ele>
        <time>2024-02-08T21:13:20Z</time>
      </trkpt>
      <trkpt lat="45.11322" lon="5.36022">
        <ele>477</ele>
        <time>2024-02-08T21:13:20Z</time>
      </trkpt>
      <trkpt lat="45.11292" lon="5.36025">
        <ele>480</ele>
        <time>2024-02-08T21:13:20Z</time>
      </trkpt>
      <trkpt lat="45.11199" lon="5.36004">
        <ele>485</ele>
        <time>2024-02-08T21:13:20Z</time>
      </trkpt>
      <trkpt lat="45.11175" lon="5.3602">
        <ele>488</ele>
        <time>2024-02-08T21:13:20Z</time>
      </trkpt>
      <trkpt lat="45.11175" lon="5.3602">
        <ele>499</ele>
        <time>2024-02-08T21:13:20Z</time>
      </trkpt>
      <trkpt lat="45.11113" lon="5.36019">
        <ele>501</ele>
        <time>2024-02-08T21:13:20Z</time>
      </trkpt>
      <trkpt lat="45.11036" lon="5.36083">
        <ele>509</ele>
        <time>2024-02-08T21:13:20Z</time>
      </trkpt>
      <trkpt lat="45.11008" lon="5.36089">
        <ele>516</ele>
        <time>2024-02-08T21:13:20Z</time>
      </trkpt>
      <trkpt lat="45.1097" lon="5.36083">
        <ele>523</ele>
        <time>2024-02-08T21:13:20Z</time>
      </trkpt>
      <trkpt lat="45.1096" lon="5.36067">
        <ele>530</ele>
        <time>2024-02-08T21:13:20Z</time>
      </trkpt>
      <trkpt lat="45.10948" lon="5.36072">
        <ele>535</ele>
        <time>2024-02-08T21:13:20Z</time>
      </trkpt>
      <trkpt lat="45.10928" lon="5.3611">
        <ele>542</ele>
        <time>2024-02-08T21:13:20Z</time>
      </trkpt>
      <trkpt lat="45.10929" lon="5.36129">
        <ele>548</ele>
        <time>2024-02-08T21:13:20Z</time>
      </trkpt>
      <trkpt lat="45.10939" lon="5.36151">
        <ele>552</ele>
        <time>2024-02-08T21:13:20Z</time>
      </trkpt>
      <trkpt lat="45.10944" lon="5.36177">
        <ele>555</ele>
        <time>2024-02-08T21:13:20Z</time>
      </trkpt>
      <trkpt lat="45.10941" lon="5.3619">
        <ele>558</ele>
        <time>2024-02-08T21:13:20Z</time>
      </trkpt>
      <trkpt lat="45.10927" lon="5.36219">
        <ele>563</ele>
        <time>2024-02-08T21:13:20Z</time>
      </trkpt>
      <trkpt lat="45.10899" lon="5.36244">
        <ele>568</ele>
        <time>2024-02-08T21:13:20Z</time>
      </trkpt>
      <trkpt lat="45.10853" lon="5.36257">
        <ele>573</ele>
        <time>2024-02-08T21:13:20Z</time>
      </trkpt>
      <trkpt lat="45.10838" lon="5.36268">
        <ele>577</ele>
        <time>2024-02-08T21:13:20Z</time>
      </trkpt>
      <trkpt lat="45.10826" lon="5.36284">
        <ele>579</ele>
        <time>2024-02-08T21:13:20Z</time>
      </trkpt>
      <trkpt lat="45.10814" lon="5.36316">
        <ele>581</ele>
        <time>2024-02-08T21:13:20Z</time>
      </trkpt>
      <trkpt lat="45.10812" lon="5.36343">
        <ele>583</ele>
        <time>2024-02-08T21:13:20Z</time>
      </trkpt>
      <trkpt lat="45.10792" lon="5.36409">
        <ele>586</ele>
        <time>2024-02-08T21:13:20Z</time>
      </trkpt>
      <trkpt lat="45.1079" lon="5.36431">
        <ele>590</ele>
        <time>2024-02-08T21:13:20Z</time>
      </trkpt>
      <trkpt lat="45.10782" lon="5.36443">
        <ele>593</ele>
        <time>2024-02-08T21:13:20Z</time>
      </trkpt>
      <trkpt lat="45.10782" lon="5.36466">
        <ele>597</ele>
        <time>2024-02-08T21:13:20Z</time>
      </trkpt>
      <trkpt lat="45.10775" lon="5.36475">
        <ele>601</ele>
        <time>2024-02-08T21:13:20Z</time>
      </trkpt>
      <trkpt lat="45.10741" lon="5.365">
        <ele>605</ele>
        <time>2024-02-08T21:13:20Z</time>
      </trkpt>
      <trkpt lat="45.10734" lon="5.36511">
        <ele>609</ele>
        <time>2024-02-08T21:13:20Z</time>
      </trkpt>
      <trkpt lat="45.10729" lon="5.36526">
        <ele>613</ele>
        <time>2024-02-08T21:13:20Z</time>
      </trkpt>
      <trkpt lat="45.10719" lon="5.36571">
        <ele>618</ele>
        <time>2024-02-08T21:13:20Z</time>
      </trkpt>
      <trkpt lat="45.10702" lon="5.36616">
        <ele>624</ele>
        <time>2024-02-08T21:13:20Z</time>
      </trkpt>
      <trkpt lat="45.10678" lon="5.36655">
        <ele>631</ele>
        <time>2024-02-08T21:13:20Z</time>
      </trkpt>
      <trkpt lat="45.10616" lon="5.36815">
        <ele>645</ele>
        <time>2024-02-08T21:13:20Z</time>
      </trkpt>
      <trkpt lat="45.106" lon="5.36918">
        <ele>658</ele>
        <time>2024-02-08T21:13:20Z</time>
      </trkpt>
      <trkpt lat="45.10559" lon="5.3699">
        <ele>672</ele>
        <time>2024-02-08T21:13:20Z</time>
      </trkpt>
      <trkpt lat="45.10548" lon="5.37032">
        <ele>683</ele>
        <time>2024-02-08T21:13:20Z</time>
      </trkpt>
      <trkpt lat="45.10548" lon="5.3706">
        <ele>691</ele>
        <time>2024-02-08T21:13:20Z</time>
      </trkpt>
      <trkpt lat="45.10528" lon="5.37086">
        <ele>698</ele>
        <time>2024-02-08T21:13:20Z</time>
      </trkpt>
      <trkpt lat="45.10512" lon="5.37096">
        <ele>705</ele>
        <time>2024-02-08T21:13:20Z</time>
      </trkpt>
      <trkpt lat="45.10512" lon="5.37096">
        <ele>730</ele>
        <time>2024-02-08T21:13:20Z</time>
      </trkpt>
      <trkpt lat="45.10498" lon="5.37111">
        <ele>731</ele>
        <time>2024-02-08T21:13:20Z</time>
      </trkpt>
      <trkpt lat="45.10495" lon="5.37125">
        <ele>732</ele>
        <time>2024-02-08T21:13:20Z</time>
      </trkpt>
      <trkpt lat="45.10498" lon="5.37149">
        <ele>734</ele>
        <time>2024-02-08T21:13:20Z</time>
      </trkpt>
      <trkpt lat="45.10497" lon="5.37175">
        <ele>736</ele>
        <time>2024-02-08T21:13:20Z</time>
      </trkpt>
      <trkpt lat="45.10501" lon="5.37216">
        <ele>738</ele>
        <time>2024-02-08T21:13:20Z</time>
      </trkpt>
      <trkpt lat="45.105" lon="5.37259">
        <ele>741</ele>
        <time>2024-02-08T21:13:20Z</time>
      </trkpt>
      <trkpt lat="45.10502" lon="5.37297">
        <ele>744</ele>
        <time>2024-02-08T21:13:20Z</time>
      </trkpt>
      <trkpt lat="45.10491" lon="5.3739">
        <ele>750</ele>
        <time>2024-02-08T21:13:20Z</time>
      </trkpt>
      <trkpt lat="45.10477" lon="5.37437">
        <ele>756</ele>
        <time>2024-02-08T21:13:20Z</time>
      </trkpt>
      <trkpt lat="45.10475" lon="5.37461">
        <ele>761</ele>
        <time>2024-02-08T21:13:20Z</time>
      </trkpt>
      <trkpt lat="45.10475" lon="5.37505">
        <ele>765</ele>
        <time>2024-02-08T21:13:20Z</time>
      </trkpt>
      <trkpt lat="45.10433" lon="5.37479">
        <ele>771</ele>
        <time>2024-02-08T21:13:20Z</time>
      </trkpt>
      <trkpt lat="45.10364" lon="5.37369">
        <ele>779</ele>
        <time>2024-02-08T21:13:20Z</time>
      </trkpt>
      <trkpt lat="45.1036" lon="5.37359">
        <ele>784</ele>
        <time>2024-02-08T21:13:20Z</time>
      </trkpt>
      <trkpt lat="45.10353" lon="5.37324">
        <ele>787</ele>
        <time>2024-02-08T21:13:20Z</time>
      </trkpt>
      <trkpt lat="45.10275" lon="5.37444">
        <ele>798</ele>
        <time>2024-02-08T21:13:20Z</time>
      </trkpt>
      <trkpt lat="45.10252" lon="5.37497">
        <ele>807</ele>
        <time>2024-02-08T21:13:20Z</time>
      </trkpt>
      <trkpt lat="45.10234" lon="5.3752">
        <ele>814</ele>
        <time>2024-02-08T21:13:20Z</time>
      </trkpt>
      <trkpt lat="45.10165" lon="5.37562">
        <ele>871</ele>
        <time>2024-02-08T21:13:20Z</time>
      </trkpt>
      <trkpt lat="45.10125" lon="5.3757">
        <ele>874</ele>
        <time>2024-02-08T21:13:20Z</time>
      </trkpt>
      <trkpt lat="45.09965" lon="5.37564">
        <ele>892</ele>
        <time>2024-02-08T21:13:20Z</time>
      </trkpt>
      <trkpt lat="45.09945" lon="5.37576">
        <ele>903</ele>
        <time>2024-02-08T21:13:20Z</time>
      </trkpt>
      <trkpt lat="45.09908" lon="5.37641">
        <ele>915</ele>
        <time>2024-02-08T21:13:20Z</time>
      </trkpt>
      <trkpt lat="45.09908" lon="5.37641">
        <ele>945</ele>
        <time>2024-02-08T21:13:20Z</time>
      </trkpt>
      <trkpt lat="45.09926" lon="5.37613">
        <ele>945</ele>
        <time>2024-02-08T21:13:20Z</time>
      </trkpt>
      <trkpt lat="45.09839" lon="5.37632">
        <ele>949</ele>
        <time>2024-02-08T21:13:20Z</time>
      </trkpt>
      <trkpt lat="45.09685" lon="5.37601">
        <ele>957</ele>
        <time>2024-02-08T21:13:20Z</time>
      </trkpt>
      <trkpt lat="45.09637" lon="5.37569">
        <ele>964</ele>
        <time>2024-02-08T21:13:20Z</time>
      </trkpt>
      <trkpt lat="45.09614" lon="5.37539">
        <ele>968</ele>
        <time>2024-02-08T21:13:20Z</time>
      </trkpt>
      <trkpt lat="45.09609" lon="5.37531">
        <ele>971</ele>
        <time>2024-02-08T21:13:20Z</time>
      </trkpt>
      <trkpt lat="45.09581" lon="5.37448">
        <ele>974</ele>
        <time>2024-02-08T21:13:20Z</time>
      </trkpt>
      <trkpt lat="45.09558" lon="5.37414">
        <ele>977</ele>
        <time>2024-02-08T21:13:20Z</time>
      </trkpt>
      <trkpt lat="45.09549" lon="5.37405">
        <ele>978</ele>
        <time>2024-02-08T21:13:20Z</time>
      </trkpt>
      <trkpt lat="45.09519" lon="5.37154">
        <ele>985</ele>
        <time>2024-02-08T21:13:20Z</time>
      </trkpt>
      <trkpt lat="45.09516" lon="5.37398">
        <ele>985</ele>
        <time>2024-02-08T21:13:20Z</time>
      </trkpt>
      <trkpt lat="45.09516" lon="5.37398">
        <ele>984</ele>
        <time>2024-02-08T21:13:20Z</time>
      </trkpt>
      <trkpt lat="45.0952" lon="5.37383">
        <ele>984</ele>
        <time>2024-02-08T21:13:20Z</time>
      </trkpt>
      <trkpt lat="45.09541" lon="5.37396">
        <ele>985</ele>
        <time>2024-02-08T21:13:20Z</time>
      </trkpt>
      <trkpt lat="45.09573" lon="5.37434">
        <ele>984</ele>
        <time>2024-02-08T21:13:20Z</time>
      </trkpt>
      <trkpt lat="45.09592" lon="5.37474">
        <ele>984</ele>
        <time>2024-02-08T21:13:20Z</time>
      </trkpt>
      <trkpt lat="45.09614" lon="5.37539">
        <ele>983</ele>
        <time>2024-02-08T21:13:20Z</time>
      </trkpt>
      <trkpt lat="45.09637" lon="5.37569">
        <ele>982</ele>
        <time>2024-02-08T21:13:20Z</time>
      </trkpt>
      <trkpt lat="45.09652" lon="5.37583">
        <ele>981</ele>
        <time>2024-02-08T21:13:20Z</time>
      </trkpt>
      <trkpt lat="45.09707" lon="5.37608">
        <ele>979</ele>
        <time>2024-02-08T21:13:20Z</time>
      </trkpt>
      <trkpt lat="45.09869" lon="5.37631">
        <ele>970</ele>
        <time>2024-02-08T21:13:20Z</time>
      </trkpt>
      <trkpt lat="45.0992" lon="5.37613">
        <ele>962</ele>
        <time>2024-02-08T21:13:20Z</time>
      </trkpt>
      <trkpt lat="45.09928" lon="5.3762">
        <ele>958</ele>
        <time>2024-02-08T21:13:20Z</time>
      </trkpt>
      <trkpt lat="45.09953" lon="5.37713">
        <ele>953</ele>
        <time>2024-02-08T21:13:20Z</time>
      </trkpt>
      <trkpt lat="45.0998" lon="5.3774">
        <ele>949</ele>
        <time>2024-02-08T21:13:20Z</time>
      </trkpt>
      <trkpt lat="45.10006" lon="5.3776">
        <ele>945</ele>
        <time>2024-02-08T21:13:20Z</time>
      </trkpt>
      <trkpt lat="45.10006" lon="5.3776">
        <ele>934</ele>
        <time>2024-02-08T21:13:20Z</time>
      </trkpt>
      <trkpt lat="45.10044" lon="5.37773">
        <ele>934</ele>
        <time>2024-02-08T21:13:20Z</time>
      </trkpt>
      <trkpt lat="45.1006" lon="5.37787">
        <ele>935</ele>
        <time>2024-02-08T21:13:20Z</time>
      </trkpt>
      <trkpt lat="45.10093" lon="5.37845">
        <ele>936</ele>
        <time>2024-02-08T21:13:20Z</time>
      </trkpt>
      <trkpt lat="45.10099" lon="5.37871">
        <ele>936</ele>
        <time>2024-02-08T21:13:20Z</time>
      </trkpt>
      <trkpt lat="45.10099" lon="5.37882">
        <ele>937</ele>
        <time>2024-02-08T21:13:20Z</time>
      </trkpt>
      <trkpt lat="45.10098" lon="5.37894">
        <ele>937</ele>
        <time>2024-02-08T21:13:20Z</time>
      </trkpt>
      <trkpt lat="45.10093" lon="5.37909">
        <ele>937</ele>
        <time>2024-02-08T21:13:20Z</time>
      </trkpt>
      <trkpt lat="45.10065" lon="5.37967">
        <ele>938</ele>
        <time>2024-02-08T21:13:20Z</time>
      </trkpt>
      <trkpt lat="45.10053" lon="5.38007">
        <ele>940</ele>
        <time>2024-02-08T21:13:20Z</time>
      </trkpt>
      <trkpt lat="45.10033" lon="5.38029">
        <ele>942</ele>
        <time>2024-02-08T21:13:20Z</time>
      </trkpt>
      <trkpt lat="45.09971" lon="5.3808">
        <ele>943</ele>
        <time>2024-02-08T21:13:20Z</time>
      </trkpt>
      <trkpt lat="45.09946" lon="5.38109">
        <ele>944</ele>
        <time>2024-02-08T21:13:20Z</time>
      </trkpt>
      <trkpt lat="45.09846" lon="5.38191">
        <ele>945</ele>
        <time>2024-02-08T21:13:20Z</time>
      </trkpt>
      <trkpt lat="45.09765" lon="5.38304">
        <ele>947</ele>
        <time>2024-02-08T21:13:20Z</time>
      </trkpt>
      <trkpt lat="45.09758" lon="5.38309">
        <ele>947</ele>
        <time>2024-02-08T21:13:20Z</time>
      </trkpt>
      <trkpt lat="45.09727" lon="5.38325">
        <ele>947</ele>
        <time>2024-02-08T21:13:20Z</time>
      </trkpt>
      <trkpt lat="45.09701" lon="5.38351">
        <ele>947</ele>
        <time>2024-02-08T21:13:20Z</time>
      </trkpt>
      <trkpt lat="45.09694" lon="5.38362">
        <ele>946</ele>
        <time>2024-02-08T21:13:20Z</time>
      </trkpt>
      <trkpt lat="45.09691" lon="5.38377">
        <ele>946</ele>
        <time>2024-02-08T21:13:20Z</time>
      </trkpt>
      <trkpt lat="45.09698" lon="5.38406">
        <ele>946</ele>
        <time>2024-02-08T21:13:20Z</time>
      </trkpt>
      <trkpt lat="45.09706" lon="5.38422">
        <ele>945</ele>
        <time>2024-02-08T21:13:20Z</time>
      </trkpt>
      <trkpt lat="45.09718" lon="5.38435">
        <ele>944</ele>
        <time>2024-02-08T21:13:20Z</time>
      </trkpt>
      <trkpt lat="45.09751" lon="5.38446">
        <ele>944</ele>
        <time>2024-02-08T21:13:20Z</time>
      </trkpt>
      <trkpt lat="45.09761" lon="5.38464">
        <ele>943</ele>
        <time>2024-02-08T21:13:20Z</time>
      </trkpt>
      <trkpt lat="45.09767" lon="5.3851">
        <ele>941</ele>
        <time>2024-02-08T21:13:20Z</time>
      </trkpt>
      <trkpt lat="45.09774" lon="5.38523">
        <ele>940</ele>
        <time>2024-02-08T21:13:20Z</time>
      </trkpt>
      <trkpt lat="45.09786" lon="5.38524">
        <ele>939</ele>
        <time>2024-02-08T21:13:20Z</time>
      </trkpt>
      <trkpt lat="45.09858" lon="5.3856">
        <ele>941</ele>
        <time>2024-02-08T21:13:20Z</time>
      </trkpt>
      <trkpt lat="45.0994" lon="5.38552">
        <ele>943</ele>
        <time>2024-02-08T21:13:20Z</time>
      </trkpt>
      <trkpt lat="45.09985" lon="5.3853">
        <ele>945</ele>
        <time>2024-02-08T21:13:20Z</time>
      </trkpt>
      <trkpt lat="45.10103" lon="5.38531">
        <ele>947</ele>
      </trkpt>
      <trkpt lat="45.10221" lon="5.38531">
        <ele>950</ele>
        <time>2024-02-08T21:13:20Z</time>
      </trkpt>
      <trkpt lat="45.10342" lon="5.38568">
        <ele>954</ele>
        <time>2024-02-08T21:13:20Z</time>
      </trkpt>
      <trkpt lat="45.1036" lon="5.38581">
        <ele>957</ele>
        <time>2024-02-08T21:13:20Z</time>
      </trkpt>
      <trkpt lat="45.10372" lon="5.38578">
        <ele>958</ele>
        <time>2024-02-08T21:13:20Z</time>
      </trkpt>
      <trkpt lat="45.10372" lon="5.38578">
        <ele>964</ele>
        <time>2024-02-08T21:13:20Z</time>
      </trkpt>
      <trkpt lat="45.1036" lon="5.38581">
        <ele>964</ele>
        <time>2024-02-08T21:13:20Z</time>
      </trkpt>
      <trkpt lat="45.10501" lon="5.3877">
        <ele>965</ele>
        <time>2024-02-08T21:13:20Z</time>
      </trkpt>
      <trkpt lat="45.10538" lon="5.38869">
        <ele>970</ele>
        <time>2024-02-08T21:13:20Z</time>
      </trkpt>
      <trkpt lat="45.10587" lon="5.38947">
        <ele>972</ele>
        <time>2024-02-08T21:13:20Z</time>
      </trkpt>
      <trkpt lat="45.10627" lon="5.38994">
        <ele>972</ele>
        <time>2024-02-08T21:13:20Z</time>
      </trkpt>
      <trkpt lat="45.10669" lon="5.39016">
        <ele>972</ele>
        <time>2024-02-08T21:13:20Z</time>
      </trkpt>
      <trkpt lat="45.10677" lon="5.39027">
        <ele>971</ele>
        <time>2024-02-08T21:13:20Z</time>
      </trkpt>
      <trkpt lat="45.10684" lon="5.39043">
        <ele>971</ele>
        <time>2024-02-08T21:13:20Z</time>
      </trkpt>
      <trkpt lat="45.107" lon="5.39062">
        <ele>971</ele>
        <time>2024-02-08T21:13:20Z</time>
      </trkpt>
      <trkpt lat="45.10722" lon="5.39096">
        <ele>972</ele>
        <time>2024-02-08T21:13:20Z</time>
      </trkpt>
      <trkpt lat="45.10735" lon="5.39108">
        <ele>972</ele>
        <time>2024-02-08T21:13:20Z</time>
      </trkpt>
      <trkpt lat="45.10747" lon="5.39111">
        <ele>973</ele>
        <time>2024-02-08T21:13:20Z</time>
      </trkpt>
      <trkpt lat="45.10767" lon="5.39108">
        <ele>973</ele>
        <time>2024-02-08T21:13:20Z</time>
      </trkpt>
      <trkpt lat="45.10775" lon="5.3911">
        <ele>973</ele>
        <time>2024-02-08T21:13:20Z</time>
      </trkpt>
      <trkpt lat="45.10887" lon="5.39201">
        <ele>978</ele>
        <time>2024-02-08T21:13:20Z</time>
      </trkpt>
      <trkpt lat="45.10887" lon="5.39201">
        <ele>990</ele>
        <time>2024-02-08T21:13:20Z</time>
      </trkpt>
      <trkpt lat="45.10919" lon="5.39229">
        <ele>991</ele>
        <time>2024-02-08T21:13:20Z</time>
      </trkpt>
      <trkpt lat="45.10977" lon="5.39303">
        <ele>993</ele>
        <time>2024-02-08T21:13:20Z</time>
      </trkpt>
      <trkpt lat="45.11045" lon="5.39348">
        <ele>996</ele>
        <time>2024-02-08T21:13:20Z</time>
      </trkpt>
      <trkpt lat="45.11051" lon="5.3936">
        <ele>998</ele>
        <time>2024-02-08T21:13:20Z</time>
      </trkpt>
      <trkpt lat="45.11061" lon="5.39362">
        <ele>999</ele>
        <time>2024-02-08T21:13:20Z</time>
      </trkpt>
      <trkpt lat="45.11073" lon="5.39357">
        <ele>999</ele>
        <time>2024-02-08T21:13:20Z</time>
      </trkpt>
      <trkpt lat="45.11089" lon="5.39359">
        <ele>1000</ele>
        <time>2024-02-08T21:13:20Z</time>
      </trkpt>
      <trkpt lat="45.11093" lon="5.3935">
        <ele>1000</ele>
        <time>2024-02-08T21:13:20Z</time>
      </trkpt>
      <trkpt lat="45.11087" lon="5.39308">
        <ele>999</ele>
        <time>2024-02-08T21:13:20Z</time>
      </trkpt>
      <trkpt lat="45.11087" lon="5.3929">
        <ele>998</ele>
        <time>2024-02-08T21:13:20Z</time>
      </trkpt>
      <trkpt lat="45.11122" lon="5.39148">
        <ele>992</ele>
        <time>2024-02-08T21:13:20Z</time>
      </trkpt>
      <trkpt lat="45.11125" lon="5.39077">
        <ele>989</ele>
        <time>2024-02-08T21:13:20Z</time>
      </trkpt>
      <trkpt lat="45.11138" lon="5.39075">
        <ele>987</ele>
        <time>2024-02-08T21:13:20Z</time>
      </trkpt>
      <trkpt lat="45.11186" lon="5.3909">
        <ele>986</ele>
        <time>2024-02-08T21:13:20Z</time>
      </trkpt>
      <trkpt lat="45.11252" lon="5.39077">
        <ele>982</ele>
        <time>2024-02-08T21:13:20Z</time>
      </trkpt>
      <trkpt lat="45.11343" lon="5.39097">
        <ele>978</ele>
        <time>2024-02-08T21:13:20Z</time>
      </trkpt>
      <trkpt lat="45.11367" lon="5.39087">
        <ele>965</ele>
        <time>2024-02-08T21:13:20Z</time>
      </trkpt>
      <trkpt lat="45.11382" lon="5.39086">
        <ele>966</ele>
        <time>2024-02-08T21:13:20Z</time>
      </trkpt>
      <trkpt lat="45.11389" lon="5.39081">
        <ele>965</ele>
        <time>2024-02-08T21:13:20Z</time>
      </trkpt>
      <trkpt lat="45.11406" lon="5.39053">
        <ele>964</ele>
        <time>2024-02-08T21:13:20Z</time>
      </trkpt>
      <trkpt lat="45.11408" lon="5.39032">
        <ele>962</ele>
        <time>2024-02-08T21:13:20Z</time>
      </trkpt>
      <trkpt lat="45.11412" lon="5.39019">
        <ele>960</ele>
        <time>2024-02-08T21:13:20Z</time>
      </trkpt>
      <trkpt lat="45.11423" lon="5.39002">
        <ele>957</ele>
        <time>2024-02-08T21:13:20Z</time>
      </trkpt>
      <trkpt lat="45.11433" lon="5.38994">
        <ele>955</ele>
        <time>2024-02-08T21:13:20Z</time>
      </trkpt>
      <trkpt lat="45.11497" lon="5.38968">
        <ele>951</ele>
        <time>2024-02-08T21:13:20Z</time>
      </trkpt>
      <trkpt lat="45.11516" lon="5.38951">
        <ele>948</ele>
        <time>2024-02-08T21:13:20Z</time>
      </trkpt>
      <trkpt lat="45.11521" lon="5.38935">
        <ele>946</ele>
        <time>2024-02-08T21:13:20Z</time>
      </trkpt>
      <trkpt lat="45.11519" lon="5.3892">
        <ele>943</ele>
        <time>2024-02-08T21:13:20Z</time>
      </trkpt>
      <trkpt lat="45.11505" lon="5.38884">
        <ele>939</ele>
        <time>2024-02-08T21:13:20Z</time>
      </trkpt>
      <trkpt lat="45.11501" lon="5.38672">
        <ele>934</ele>
        <time>2024-02-08T21:13:20Z</time>
      </trkpt>
      <trkpt lat="45.11392" lon="5.38468">
        <ele>919</ele>
        <time>2024-02-08T21:13:20Z</time>
      </trkpt>
      <trkpt lat="45.11389" lon="5.38457">
        <ele>911</ele>
        <time>2024-02-08T21:13:20Z</time>
      </trkpt>
      <trkpt lat="45.11402" lon="5.38302">
        <ele>897</ele>
        <time>2024-02-08T21:13:20Z</time>
      </trkpt>
      <trkpt lat="45.11411" lon="5.38301">
        <ele>889</ele>
        <time>2024-02-08T21:13:20Z</time>
      </trkpt>
      <trkpt lat="45.11428" lon="5.38318">
        <ele>884</ele>
        <time>2024-02-08T21:13:20Z</time>
      </trkpt>
      <trkpt lat="45.11435" lon="5.38322">
        <ele>880</ele>
        <time>2024-02-08T21:13:20Z</time>
      </trkpt>
      <trkpt lat="45.11445" lon="5.38316">
        <ele>876</ele>
        <time>2024-02-08T21:13:20Z</time>
      </trkpt>
      <trkpt lat="45.11453" lon="5.38331">
        <ele>874</ele>
        <time>2024-02-08T21:13:20Z</time>
      </trkpt>
      <trkpt lat="45.11453" lon="5.38331">
        <ele>862</ele>
        <time>2024-02-08T21:13:20Z</time>
      </trkpt>
      <trkpt lat="45.11447" lon="5.38311">
        <ele>862</ele>
        <time>2024-02-08T21:13:20Z</time>
      </trkpt>
      <trkpt lat="45.11473" lon="5.3816">
        <ele>858</ele>
        <time>2024-02-08T21:13:20Z</time>
      </trkpt>
      <trkpt lat="45.11483" lon="5.38137">
        <ele>854</ele>
        <time>2024-02-08T21:13:20Z</time>
      </trkpt>
      <trkpt lat="45.11528" lon="5.38087">
        <ele>850</ele>
        <time>2024-02-08T21:13:20Z</time>
      </trkpt>
      <trkpt lat="45.11614" lon="5.38005">
        <ele>843</ele>
        <time>2024-02-08T21:13:20Z</time>
      </trkpt>
      <trkpt lat="45.11649" lon="5.37935">
        <ele>837</ele>
        <time>2024-02-08T21:13:20Z</time>
      </trkpt>
      <trkpt lat="45.11649" lon="5.37923">
        <ele>833</ele>
        <time>2024-02-08T21:13:20Z</time>
      </trkpt>
      <trkpt lat="45.11686" lon="5.37873">
        <ele>831</ele>
        <time>2024-02-08T21:13:20Z</time>
      </trkpt>
      <trkpt lat="45.11713" lon="5.37799">
        <ele>831</ele>
        <time>2024-02-08T21:13:20Z</time>
      </trkpt>
      <trkpt lat="45.11717" lon="5.37772">
        <ele>831</ele>
        <time>2024-02-08T21:13:20Z</time>
      </trkpt>
      <trkpt lat="45.11719" lon="5.37721">
        <ele>828</ele>
        <time>2024-02-08T21:13:20Z</time>
      </trkpt>
      <trkpt lat="45.11733" lon="5.37691">
        <ele>826</ele>
        <time>2024-02-08T21:13:20Z</time>
      </trkpt>
      <trkpt lat="45.11752" lon="5.37659">
        <ele>825</ele>
        <time>2024-02-08T21:13:20Z</time>
      </trkpt>
      <trkpt lat="45.1176" lon="5.37651">
        <ele>824</ele>
        <time>2024-02-08T21:13:20Z</time>
      </trkpt>
      <trkpt lat="45.1177" lon="5.3765">
        <ele>824</ele>
        <time>2024-02-08T21:13:20Z</time>
      </trkpt>
      <trkpt lat="45.11789" lon="5.37664">
        <ele>825</ele>
        <time>2024-02-08T21:13:20Z</time>
      </trkpt>
      <trkpt lat="45.11822" lon="5.37694">
        <ele>826</ele>
        <time>2024-02-08T21:13:20Z</time>
      </trkpt>
      <trkpt lat="45.11915" lon="5.37734">
        <ele>830</ele>
        <time>2024-02-08T21:13:20Z</time>
      </trkpt>
      <trkpt lat="45.11935" lon="5.37736">
        <ele>832</ele>
        <time>2024-02-08T21:13:20Z</time>
      </trkpt>
      <trkpt lat="45.11971" lon="5.37757">
        <ele>834</ele>
        <time>2024-02-08T21:13:20Z</time>
      </trkpt>
      <trkpt lat="45.12011" lon="5.378">
        <ele>838</ele>
        <time>2024-02-08T21:13:20Z</time>
      </trkpt>
      <trkpt lat="45.12065" lon="5.37845">
        <ele>840</ele>
        <time>2024-02-08T21:13:20Z</time>
      </trkpt>
      <trkpt lat="45.12087" lon="5.37876">
        <ele>842</ele>
        <time>2024-02-08T21:13:20Z</time>
      </trkpt>
      <trkpt lat="45.12111" lon="5.37928">
        <ele>844</ele>
        <time>2024-02-08T21:13:20Z</time>
      </trkpt>
      <trkpt lat="45.12123" lon="5.37963">
        <ele>847</ele>
        <time>2024-02-08T21:13:20Z</time>
      </trkpt>
      <trkpt lat="45.12162" lon="5.38019">
        <ele>849</ele>
        <time>2024-02-08T21:13:20Z</time>
      </trkpt>
      <trkpt lat="45.12189" lon="5.38147">
        <ele>853</ele>
        <time>2024-02-08T21:13:20Z</time>
      </trkpt>
      <trkpt lat="45.12189" lon="5.38158">
        <ele>856</ele>
        <time>2024-02-08T21:13:20Z</time>
      </trkpt>
      <trkpt lat="45.12183" lon="5.3819">
        <ele>859</ele>
        <time>2024-02-08T21:13:20Z</time>
      </trkpt>
      <trkpt lat="45.12181" lon="5.38227">
        <ele>862</ele>
        <time>2024-02-08T21:13:20Z</time>
      </trkpt>
      <trkpt lat="45.12186" lon="5.38238">
        <ele>864</ele>
        <time>2024-02-08T21:13:20Z</time>
      </trkpt>
      <trkpt lat="45.12194" lon="5.38242">
        <ele>866</ele>
        <time>2024-02-08T21:13:20Z</time>
      </trkpt>
      <trkpt lat="45.12341" lon="5.38269">
        <ele>865</ele>
        <time>2024-02-08T21:13:20Z</time>
      </trkpt>
      <trkpt lat="45.12453" lon="5.38339">
        <ele>860</ele>
        <time>2024-02-08T21:13:20Z</time>
      </trkpt>
      <trkpt lat="45.12473" lon="5.38362">
        <ele>857</ele>
        <time>2024-02-08T21:13:20Z</time>
      </trkpt>
      <trkpt lat="45.12497" lon="5.38363">
        <ele>853</ele>
        <time>2024-02-08T21:13:20Z</time>
      </trkpt>
      <trkpt lat="45.12517" lon="5.38356">
        <ele>850</ele>
        <time>2024-02-08T21:13:20Z</time>
      </trkpt>
      <trkpt lat="45.12532" lon="5.38365">
        <ele>847</ele>
        <time>2024-02-08T21:13:20Z</time>
      </trkpt>
      <trkpt lat="45.12577" lon="5.38483">
        <ele>841</ele>
        <time>2024-02-08T21:13:20Z</time>
      </trkpt>
      <trkpt lat="45.12577" lon="5.38483">
        <ele>825</ele>
        <time>2024-02-08T21:13:20Z</time>
      </trkpt>
      <trkpt lat="45.12586" lon="5.3851">
        <ele>823</ele>
        <time>2024-02-08T21:13:20Z</time>
      </trkpt>
      <trkpt lat="45.12611" lon="5.38611">
        <ele>818</ele>
        <time>2024-02-08T21:13:20Z</time>
      </trkpt>
      <trkpt lat="45.12614" lon="5.38779">
        <ele>814</ele>
        <time>2024-02-08T21:13:20Z</time>
      </trkpt>
      <trkpt lat="45.12618" lon="5.38794">
        <ele>811</ele>
        <time>2024-02-08T21:13:20Z</time>
      </trkpt>
      <trkpt lat="45.12627" lon="5.38799">
        <ele>810</ele>
        <time>2024-02-08T21:13:20Z</time>
      </trkpt>
      <trkpt lat="45.12637" lon="5.38797">
        <ele>809</ele>
        <time>2024-02-08T21:13:20Z</time>
      </trkpt>
      <trkpt lat="45.12647" lon="5.38776">
        <ele>809</ele>
        <time>2024-02-08T21:13:20Z</time>
      </trkpt>
      <trkpt lat="45.12656" lon="5.38723">
        <ele>808</ele>
        <time>2024-02-08T21:13:20Z</time>
      </trkpt>
      <trkpt lat="45.12685" lon="5.38652">
        <ele>807</ele>
        <time>2024-02-08T21:13:20Z</time>
      </trkpt>
      <trkpt lat="45.127" lon="5.38523">
        <ele>805</ele>
        <time>2024-02-08T21:13:20Z</time>
      </trkpt>
      <trkpt lat="45.1273" lon="5.38489">
        <ele>805</ele>
        <time>2024-02-08T21:13:20Z</time>
      </trkpt>
      <trkpt lat="45.12756" lon="5.38479">
        <ele>806</ele>
        <time>2024-02-08T21:13:20Z</time>
      </trkpt>
      <trkpt lat="45.12839" lon="5.38511">
        <ele>808</ele>
        <time>2024-02-08T21:13:20Z</time>
      </trkpt>
      <trkpt lat="45.1288" lon="5.38557">
        <ele>809</ele>
        <time>2024-02-08T21:13:20Z</time>
      </trkpt>
      <trkpt lat="45.12952" lon="5.38704">
        <ele>811</ele>
        <time>2024-02-08T21:13:20Z</time>
      </trkpt>
      <trkpt lat="45.1297" lon="5.38693">
        <ele>810</ele>
        <time>2024-02-08T21:13:20Z</time>
      </trkpt>
      <trkpt lat="45.12981" lon="5.3869">
        <ele>808</ele>
        <time>2024-02-08T21:13:20Z</time>
      </trkpt>
      <trkpt lat="45.12993" lon="5.3869">
        <ele>806</ele>
        <time>2024-02-08T21:13:20Z</time>
      </trkpt>
      <trkpt lat="45.13007" lon="5.38698">
        <ele>804</ele>
        <time>2024-02-08T21:13:20Z</time>
      </trkpt>
      <trkpt lat="45.13059" lon="5.38759">
        <ele>800</ele>
        <time>2024-02-08T21:13:20Z</time>
      </trkpt>
      <trkpt lat="45.13068" lon="5.38763">
        <ele>796</ele>
        <time>2024-02-08T21:13:20Z</time>
      </trkpt>
      <trkpt lat="45.13148" lon="5.38781">
        <ele>786</ele>
        <time>2024-02-08T21:13:20Z</time>
      </trkpt>
      <trkpt lat="45.13204" lon="5.38807">
        <ele>775</ele>
        <time>2024-02-08T21:13:20Z</time>
      </trkpt>
      <trkpt lat="45.13196" lon="5.38776">
        <ele>767</ele>
        <time>2024-02-08T21:13:20Z</time>
      </trkpt>
      <trkpt lat="45.132" lon="5.38747">
        <ele>760</ele>
        <time>2024-02-08T21:13:20Z</time>
      </trkpt>
      <trkpt lat="45.13209" lon="5.38734">
        <ele>753</ele>
        <time>2024-02-08T21:13:20Z</time>
      </trkpt>
      <trkpt lat="45.13251" lon="5.38763">
        <ele>747</ele>
        <time>2024-02-08T21:13:20Z</time>
      </trkpt>
      <trkpt lat="45.13263" lon="5.38767">
        <ele>742</ele>
        <time>2024-02-08T21:13:20Z</time>
      </trkpt>
      <trkpt lat="45.13276" lon="5.38756">
        <ele>738</ele>
        <time>2024-02-08T21:13:20Z</time>
      </trkpt>
      <trkpt lat="45.13279" lon="5.38728">
        <ele>735</ele>
        <time>2024-02-08T21:13:20Z</time>
      </trkpt>
      <trkpt lat="45.13276" lon="5.38695">
        <ele>732</ele>
        <time>2024-02-08T21:13:20Z</time>
      </trkpt>
      <trkpt lat="45.13282" lon="5.38664">
        <ele>728</ele>
        <time>2024-02-08T21:13:20Z</time>
      </trkpt>
      <trkpt lat="45.13292" lon="5.38647">
        <ele>725</ele>
        <time>2024-02-08T21:13:20Z</time>
      </trkpt>
      <trkpt lat="45.13308" lon="5.38642">
        <ele>723</ele>
        <time>2024-02-08T21:13:20Z</time>
      </trkpt>
      <trkpt lat="45.13335" lon="5.38646">
        <ele>720</ele>
        <time>2024-02-08T21:13:20Z</time>
      </trkpt>
      <trkpt lat="45.13355" lon="5.38642">
        <ele>718</ele>
        <time>2024-02-08T21:13:20Z</time>
      </trkpt>
      <trkpt lat="45.1335" lon="5.38626">
        <ele>715</ele>
        <time>2024-02-08T21:13:20Z</time>
      </trkpt>
      <trkpt lat="45.13321" lon="5.38596">
        <ele>689</ele>
        <time>2024-02-08T21:13:20Z</time>
      </trkpt>
      <trkpt lat="45.13321" lon="5.38449">
        <ele>666</ele>
        <time>2024-02-08T21:13:20Z</time>
      </trkpt>
      <trkpt lat="45.133" lon="5.38373">
        <ele>637</ele>
      </trkpt>
      <trkpt lat="45.13278" lon="5.38297">
        <ele>606</ele>
        <time>2024-02-08T21:13:20Z</time>
      </trkpt>
      <trkpt lat="45.13236" lon="5.38294">
        <ele>586</ele>
        <time>2024-02-08T21:13:20Z</time>
      </trkpt>
      <trkpt lat="45.13149" lon="5.38246">
        <ele>570</ele>
        <time>2024-02-08T21:13:20Z</time>
      </trkpt>
      <trkpt lat="45.13122" lon="5.38239">
        <ele>560</ele>
        <time>2024-02-08T21:13:20Z</time>
      </trkpt>
      <trkpt lat="45.13224" lon="5.38236">
        <ele>544</ele>
      </trkpt>
      <trkpt lat="45.13325" lon="5.38233">
        <ele>525</ele>
        <time>2024-02-08T21:13:20Z</time>
      </trkpt>
      <trkpt lat="45.13404" lon="5.38216">
        <ele>508</ele>
      </trkpt>
      <trkpt lat="45.13483" lon="5.38199">
        <ele>491</ele>
        <time>2024-02-08T21:13:20Z</time>
      </trkpt>
      <trkpt lat="45.13483" lon="5.38199">
        <ele>454</ele>
        <time>2024-02-08T21:13:20Z</time>
      </trkpt>
      <trkpt lat="45.13581" lon="5.38192">
        <ele>446</ele>
      </trkpt>
      <trkpt lat="45.13678" lon="5.38185">
        <ele>433</ele>
        <time>2024-02-08T21:13:20Z</time>
      </trkpt>
      <trkpt lat="45.13768" lon="5.38199">
        <ele>418</ele>
      </trkpt>
      <trkpt lat="45.13858" lon="5.38213">
        <ele>401</ele>
        <time>2024-02-08T21:13:20Z</time>
      </trkpt>
      <trkpt lat="45.13862" lon="5.38227">
        <ele>392</ele>
        <time>2024-02-08T21:13:20Z</time>
      </trkpt>
      <trkpt lat="45.13862" lon="5.38269">
        <ele>386</ele>
        <time>2024-02-08T21:13:20Z</time>
      </trkpt>
      <trkpt lat="45.13867" lon="5.38279">
        <ele>381</ele>
        <time>2024-02-08T21:13:20Z</time>
      </trkpt>
      <trkpt lat="45.13873" lon="5.38268">
        <ele>378</ele>
        <time>2024-02-08T21:13:20Z</time>
      </trkpt>
      <trkpt lat="45.13883" lon="5.38204">
        <ele>374</ele>
        <time>2024-02-08T21:13:20Z</time>
      </trkpt>
      <trkpt lat="45.13885" lon="5.38142">
        <ele>369</ele>
        <time>2024-02-08T21:13:20Z</time>
      </trkpt>
      <trkpt lat="45.13883" lon="5.38126">
        <ele>366</ele>
        <time>2024-02-08T21:13:20Z</time>
      </trkpt>
      <trkpt lat="45.13893" lon="5.38128">
        <ele>363</ele>
        <time>2024-02-08T21:13:20Z</time>
      </trkpt>
      <trkpt lat="45.1392" lon="5.38148">
        <ele>360</ele>
        <time>2024-02-08T21:13:20Z</time>
      </trkpt>
      <trkpt lat="45.13948" lon="5.38158">
        <ele>357</ele>
        <time>2024-02-08T21:13:20Z</time>
      </trkpt>
      <trkpt lat="45.13956" lon="5.38158">
        <ele>354</ele>
        <time>2024-02-08T21:13:20Z</time>
      </trkpt>
      <trkpt lat="45.13981" lon="5.38139">
        <ele>351</ele>
        <time>2024-02-08T21:13:20Z</time>
      </trkpt>
      <trkpt lat="45.14058" lon="5.38031">
        <ele>343</ele>
        <time>2024-02-08T21:13:20Z</time>
      </trkpt>
      <trkpt lat="45.14062" lon="5.38021">
        <ele>338</ele>
        <time>2024-02-08T21:13:20Z</time>
      </trkpt>
      <trkpt lat="45.14064" lon="5.38002">
        <ele>334</ele>
        <time>2024-02-08T21:13:20Z</time>
      </trkpt>
      <trkpt lat="45.14104" lon="5.37906">
        <ele>327</ele>
        <time>2024-02-08T21:13:20Z</time>
      </trkpt>
      <trkpt lat="45.14108" lon="5.37892">
        <ele>323</ele>
        <time>2024-02-08T21:13:20Z</time>
      </trkpt>
      <trkpt lat="45.14133" lon="5.37844">
        <ele>319</ele>
        <time>2024-02-08T21:13:20Z</time>
      </trkpt>
      <trkpt lat="45.14178" lon="5.37794">
        <ele>313</ele>
      </trkpt>
      <trkpt lat="45.14224" lon="5.37744">
        <ele>306</ele>
      </trkpt>
      <trkpt lat="45.14269" lon="5.37694">
        <ele>299</ele>
      </trkpt>
      <trkpt lat="45.14314" lon="5.37644">
        <ele>290</ele>
        <time>2024-02-08T21:13:20Z</time>
      </trkpt>
      <trkpt lat="45.14336" lon="5.37625">
        <ele>284</ele>
        <time>2024-02-08T21:13:20Z</time>
      </trkpt>
      <trkpt lat="45.1434" lon="5.37616">
        <ele>280</ele>
        <time>2024-02-08T21:13:20Z</time>
      </trkpt>
      <trkpt lat="45.14351" lon="5.3757">
        <ele>275</ele>
        <time>2024-02-08T21:13:20Z</time>
      </trkpt>
      <trkpt lat="45.14383" lon="5.37606">
        <ele>270</ele>
        <time>2024-02-08T21:13:20Z</time>
      </trkpt>
      <trkpt lat="45.14405" lon="5.37648">
        <ele>266</ele>
        <time>2024-02-08T21:13:20Z</time>
      </trkpt>
      <trkpt lat="45.1442" lon="5.37661">
        <ele>263</ele>
        <time>2024-02-08T21:13:20Z</time>
      </trkpt>
      <trkpt lat="45.14438" lon="5.3763">
        <ele>260</ele>
        <time>2024-02-08T21:13:20Z</time>
      </trkpt>
      <trkpt lat="45.14449" lon="5.37604">
        <ele>257</ele>
        <time>2024-02-08T21:13:20Z</time>
      </trkpt>
      <trkpt lat="45.14446" lon="5.37587">
        <ele>255</ele>
        <time>2024-02-08T21:13:20Z</time>
      </trkpt>
      <trkpt lat="45.14446" lon="5.37576">
        <ele>254</ele>
        <time>2024-02-08T21:13:20Z</time>
      </trkpt>
      <trkpt lat="45.14482" lon="5.37456">
        <ele>250</ele>
      </trkpt>
      <trkpt lat="45.14517" lon="5.37335">
        <ele>246</ele>
        <time>2024-02-08T21:13:20Z</time>
      </trkpt>
      <trkpt lat="45.14498" lon="5.37322">
        <ele>244</ele>
        <time>2024-02-08T21:13:20Z</time>
      </trkpt>
    </trkseg>
  </trk>
</gpx>